{"data":{"norad_id":64691,"intl_designator":"2025-140A","name":"LYRA-4","alt_names":[],"object_type":"PAYLOAD","status":"ACTIVE","operator":null,"country":"AUS","launch_date":"2025-06-28","launch_site_code":"RLLB","launch_vehicle":null,"mission":null,"orbit_class":"UNKNOWN","rcs_meters":null,"size_class":null,"mass_kg":null,"dimensions":null,"purposes":[],"wikipedia_slug":null,"has_3d_model":false,"image_url":null,"decayed_at":null,"tle_current":{"epoch":"2026-09-21T20:12:09.205344Z","epoch_age_seconds":61757,"freshness":"FRESH","line1":"1 64691U 25140A   26264.84177321  .00000801  00000+0  13016-3 0  9993","line2":"2 64691  96.0100   0.1608 0010966 237.9432 122.0717 14.72697871 66285","mean_motion":14.72697871,"eccentricity":0.0010966,"inclination_deg":96.01,"raan_deg":0.1608,"arg_perigee_deg":237.9432,"mean_anomaly_deg":122.0717,"bstar":0.00013016,"rev_number":6628,"period_min":97.779729865584,"perigee_km":644.75883121935,"apogee_km":660.1783554066,"semimajor_km":7030.605593313,"source":"CELESTRAK","updated_at":"2026-09-22T09:00:29.897824Z"}}}